[[{"header":{"parameterUnit":"m.s-1","parameterCategory":1,"la1":30.2991,"la2":30.254,"lo1":-89.0895,"lo2":-89.0444,"dy":0.0017,"dx":0.0017,"nx":28,"ny":28,"refTime":"2025-09-15T09:00:00:Z","depth":0,"parameterNumber":2,"parameterNumberName":"U-component_of_WINDS"},"data":[0,0,0,0,0,0,0,0,0,0,0,0,0,0,0,0,0,0,0,0,0,0,0,0,0,0,0,0,0,0,0,0,0,0,0,0,0,0,0,0,0,0,0,0,0,0,0,0,0,0,0,0,0,0,0,0,0,0,1.8721,1.872,0,1.8702,1.8701,1.8701,1.8666,1.8666,1.8665,1.8664,1.8642,1.8642,1.8642,0,0,0,0,0,0,0,0,0,0,0,0,0,1.8722,1.8722,1.8721,1.872,1.872,1.8702,1.8701,1.8701,1.8667,1.8666,1.8665,1.8664,1.8642,1.8642,1.8642,0,0,0,0,0,0,0,0,0,0,0,0,0,1.8714,1.8722,1.8721,1.8701,1.8699,1.8702,1.8701,1.8701,1.8667,1.8666,1.8665,1.8664,1.8642,1.8642,1.8642,1.8662,0,0,1.8642,1.8642,0,0,0,0,0,0,0,0,1.8714,1.8714,1.8704,1.8702,1.87,1.8685,1.8693,1.8688,1.8667,1.8679,1.8664,1.8663,1.8657,1.8656,1.8654,1.8661,1.866,1.8642,1.8642,1.8642,1.8642,0,0,0,0,0,0,0,1.8715,1.8714,1.8713,1.8704,1.8701,1.8691,1.8689,1.8692,1.8674,1.8678,1.8675,1.8673,1.8656,1.8655,1.8654,1.866,1.8642,1.8642,1.8642,1.8642,1.8677,1.8677,0,0,0,0,0,0,1.8719,1.8715,1.8714,1.8712,1.8705,1.8692,1.8689,1.8691,1.8674,1.867,1.8674,1.8672,1.8655,1.8654,1.8653,1.8672,1.8642,1.8642,1.8642,1.8676,1.8677,1.8678,0,0,0,0,0,0,1.8719,1.8719,1.8714,1.8713,1.8712,1.8693,1.8695,1.8691,1.869,1.8671,1.8667,1.8677,1.8654,1.8653,1.8659,1.867,1.8642,1.8642,1.8675,1.8676,1.8677,1.8712,0,0,0,0,0,0,1.8719,1.8719,1.8728,1.8714,1.8712,1.8723,1.8696,1.8691,1.869,1.8687,1.8672,1.8669,1.8653,1.8659,1.8659,1.867,1.8642,1.8673,1.8675,1.8677,1.8709,1.8714,1.8718,0,0,0,0,0,1.8719,1.8739,1.8729,1.8729,1.8723,1.8724,1.8723,1.8705,1.8691,1.8699,1.8686,1.8669,1.8669,1.866,1.866,1.8671,1.8673,1.8675,1.8677,1.8708,1.8713,1.8718,0,0,0,0,0,0,1.8756,1.8737,1.8726,1.8742,1.8735,1.8718,1.8727,1.8712,1.8708,1.8705,1.8683,1.868,1.8688,1.868,1.867,1.8687,1.8668,1.867,1.8692,1.8697,1.8701,1.8702,1.8643,0,0,0,0,0,1.8766,1.877,1.8753,1.8768,1.8765,1.8747,1.8747,1.8733,1.8725,1.8721,1.8709,1.8701,1.8698,1.8697,1.8694,1.8708,1.8702,1.8715,1.8719,1.8723,1.8724,1.8727,1.8731,1.8684,1.8684,1.8684,0,0,1.8787,1.8777,1.8781,1.8775,1.8768,1.877,1.8745,1.8749,1.8749,1.8722,1.8727,1.8717,1.8705,1.8715,1.8718,1.8708,1.8736,1.8725,1.8728,1.8728,1.873,1.8734,1.8738,1.8686,1.8685,1.8685,0,0,1.8825,1.8819,1.883,1.8823,1.8812,1.8799,1.8801,1.8786,1.8779,1.8783,1.8761,1.8761,1.8758,1.875,1.8745,1.8776,1.8759,1.8775,1.8797,1.88,1.8804,1.8807,1.8815,1.8818,1.8777,1.8777,1.8777,0,1.8852,1.8856,1.8837,1.8841,1.8838,1.8813,1.8821,1.8815,1.8804,1.8801,1.879,1.8784,1.8775,1.8779,1.8786,1.8785,1.8784,1.8777,1.8805,1.8808,1.881,1.8818,1.8821,1.8779,1.8779,1.8779,1.8778,0,1.8887,1.889,1.8899,1.8888,1.8886,1.8893,1.8873,1.8872,1.8858,1.8845,1.8848,1.8835,1.8828,1.8828,1.8815,1.883,1.8823,1.8809,1.879,1.8817,1.8823,1.8826,1.8782,1.8781,1.878,1.878,0,0,1.895,1.8926,1.893,1.8923,1.8907,1.8908,1.8912,1.8904,1.8903,1.8895,1.8895,1.8892,1.8877,1.8872,1.8857,1.886,1.8881,1.8845,1.8844,1.885,1.8892,1.8902,1.8906,1.887,1.887,1.887,1.8892,0,1.8983,1.8989,1.8971,1.8981,1.8981,1.8955,1.8958,1.8947,1.8935,1.8931,1.8917,1.8913,1.8896,1.8892,1.8894,1.8878,1.8889,1.8876,1.8867,1.8867,1.887,1.891,1.8921,1.8942,1.8895,1.8895,1.8896,0,1.9023,1.9016,1.9026,1.9007,1.9006,1.9009,1.8999,1.8997,1.8983,1.8973,1.8965,1.8947,1.8947,1.8929,1.8926,1.8918,1.8913,1.8904,1.8905,1.8902,1.8883,1.8906,1.8949,1.8951,1.89,1.89,1.8899,0,1.9064,1.9057,1.9061,1.9057,1.9035,1.9037,1.9028,1.9013,1.9008,1.8999,1.8995,1.8985,1.898,1.8971,1.895,1.894,1.8948,1.893,1.8938,1.8939,1.8941,1.8941,1.8981,1.894,1.894,1.894,1.894,0,1.9102,1.9108,1.9079,1.9082,1.9087,1.9064,1.9069,1.9057,1.9043,1.9041,1.9018,1.9016,1.8989,1.8984,1.8967,1.8965,1.8963,1.8954,1.8949,1.8955,1.8956,1.895,1.8948,1.8941,1.8941,1.8941,1.8941,0,1.9148,1.913,1.9132,1.911,1.9105,1.9109,1.9089,1.9089,1.9074,1.9071,1.9069,1.9045,1.9037,1.9015,1.9001,1.899,1.8992,1.8984,1.8997,1.8993,1.9002,1.9001,1.904,1.9042,1.9002,1.9002,1.9002,0,1.9173,1.9177,1.9155,1.9152,1.9144,1.914,1.9134,1.9111,1.9106,1.9088,1.9089,1.9079,1.907,1.9057,1.9037,1.9025,1.9016,1.903,1.9014,1.9019,1.9013,1.9013,1.9011,1.9034,1.9034,1.9035,1.9035,0,1.9218,1.9207,1.9201,1.9191,1.9185,1.9175,1.9164,1.9163,1.9136,1.9131,1.9122,1.9115,1.9099,1.9088,1.9073,1.9061,1.9042,1.904,1.9041,1.9047,1.9053,1.9047,1.9004,1.9039,1.9039,1.9039,1.9038,1.9038,1.9252,1.9253,1.9237,1.923,1.9219,1.9209,1.9206,1.919,1.9183,1.9169,1.9155,1.9147,1.9129,1.9106,1.9095,1.9087,1.9078,1.908,1.908,1.908,1.9082,1.9055,1.9084,1.9084,1.9084,1.9084,1.9083,0,1.9294,1.9281,1.9275,1.926,1.9253,1.9237,1.9223,1.9218,1.9211,1.9197,1.9187,1.9175,1.9163,1.9142,1.9127,1.9124,1.9115,1.9121,1.912,1.9117,1.9092,1.9092,1.9129,1.9129,1.9129,1.9129,1.9129,1.9129,1.9314,1.9314,1.9301,1.9294,1.9281,1.9273,1.9266,1.9255,1.9243,1.9231,1.9221,1.9207,1.9188,1.9172,1.916,1.9153,1.9148,1.9156,1.9147,1.9124,1.912,1.9115,1.9115,1.9156,1.9156,1.9173,1.9173,1.9173]},{"header":{"parameterUnit":"m.s-1","parameterCategory":1,"la1":30.2991,"la2":30.254,"lo1":-89.0895,"lo2":-89.0444,"dy":0.0017,"dx":0.0017,"nx":28,"ny":28,"refTime":"2025-09-15T09:00:00:Z","depth":0,"parameterNumber":3,"parameterNumberName":"V-component_of_WINDS"},"data":[0,0,0,0,0,0,0,0,0,0,0,0,0,0,0,0,0,0,0,0,0,0,0,0,0,0,0,0,0,0,0,0,0,0,0,0,0,0,0,0,0,0,0,0,0,0,0,0,0,0,0,0,0,0,0,0,0,0,0.8732,0.8733,0,0.8812,0.8813,0.8814,0.8838,0.8838,0.8837,0.8837,0.8918,0.8921,0.8923,0,0,0,0,0,0,0,0,0,0,0,0,0,0.8596,0.8598,0.8732,0.8733,0.8734,0.8812,0.8813,0.8814,0.8838,0.8838,0.8837,0.8837,0.8917,0.892,0.8923,0,0,0,0,0,0,0,0,0,0,0,0,0,0.8664,0.8599,0.8731,0.8755,0.8758,0.8812,0.8813,0.8814,0.8838,0.8838,0.8837,0.8836,0.8916,0.892,0.8924,0.896,0,0,0.8935,0.8937,0,0,0,0,0,0,0,0,0.866,0.8668,0.8751,0.8753,0.8757,0.8814,0.8795,0.8863,0.8838,0.8808,0.8837,0.8836,0.8884,0.889,0.8907,0.8963,0.8967,0.8936,0.8938,0.894,0.8941,0,0,0,0,0,0,0,0.8655,0.8665,0.8763,0.8752,0.8756,0.8761,0.877,0.8808,0.8848,0.881,0.8812,0.8821,0.8886,0.8903,0.8909,0.8968,0.8936,0.8939,0.8941,0.8943,0.9056,0.9056,0,0,0,0,0,0,0.8647,0.8661,0.8761,0.8766,0.8706,0.8764,0.8774,0.8797,0.8848,0.8855,0.8822,0.8822,0.8897,0.8904,0.8912,0.8956,0.894,0.8943,0.8945,0.9055,0.9056,0.9057,0,0,0,0,0,0,0.8644,0.8655,0.8758,0.8714,0.8727,0.8767,0.8792,0.8798,0.8816,0.8857,0.8864,0.8833,0.8897,0.8907,0.8947,0.8959,0.8945,0.8948,0.9054,0.9055,0.9056,0.9045,0,0,0,0,0,0,0.864,0.8654,0.8669,0.8714,0.873,0.8792,0.8793,0.88,0.8823,0.8824,0.8869,0.8875,0.8897,0.8941,0.8951,0.8964,0.8951,0.9053,0.9055,0.9056,0.9045,0.9046,0.9047,0,0,0,0,0,0.8635,0.8663,0.867,0.8681,0.8749,0.8793,0.8802,0.8826,0.8824,0.8838,0.8864,0.8874,0.8956,0.8945,0.8956,0.8971,0.9053,0.9054,0.9056,0.9044,0.9046,0.9047,0,0,0,0,0,0,0.8618,0.8669,0.8677,0.8721,0.8752,0.8797,0.8817,0.8827,0.886,0.886,0.8888,0.8898,0.8936,0.8958,0.8945,0.9007,0.9005,0.9008,0.8992,0.8994,0.8995,0.8989,0.8955,0,0,0,0,0,0.862,0.8652,0.8694,0.8729,0.8744,0.8777,0.8797,0.8813,0.8847,0.886,0.8889,0.8921,0.8954,0.8975,0.9007,0.9048,0.9057,0.9063,0.9064,0.9064,0.9068,0.9089,0.9091,0.9062,0.9062,0.9062,0,0,0.8623,0.8655,0.8674,0.8726,0.8752,0.8784,0.8788,0.8822,0.8845,0.8865,0.8905,0.8927,0.8964,0.9004,0.9024,0.9023,0.9077,0.9066,0.9067,0.907,0.9091,0.9093,0.9096,0.9063,0.9063,0.9062,0,0,0.8645,0.8673,0.8704,0.873,0.8769,0.8791,0.8798,0.8841,0.8856,0.8896,0.8911,0.8939,0.8995,0.9021,0.9041,0.907,0.908,0.9079,0.9085,0.9105,0.9108,0.911,0.9119,0.9122,0.9082,0.9082,0.9082,0,0.8645,0.8694,0.8719,0.8751,0.8773,0.8792,0.8823,0.8846,0.8894,0.8909,0.8908,0.8977,0.9004,0.9049,0.9056,0.9072,0.908,0.9075,0.9105,0.9108,0.911,0.9119,0.9123,0.9082,0.9082,0.9082,0.9082,0,0.869,0.8723,0.8744,0.8789,0.8813,0.8845,0.8873,0.8895,0.8908,0.8929,0.8968,0.9,0.9039,0.9051,0.9064,0.9098,0.9096,0.91,0.9098,0.9112,0.9121,0.9125,0.9081,0.9082,0.9082,0.9082,0,0,0.8706,0.8763,0.877,0.879,0.8834,0.886,0.8891,0.8929,0.8946,0.8977,0.9003,0.9049,0.9053,0.9075,0.9091,0.9109,0.9128,0.9111,0.9112,0.9112,0.9166,0.9162,0.9166,0.9135,0.9136,0.9136,0.9162,0,0.8734,0.8791,0.8814,0.886,0.889,0.8907,0.8934,0.8963,0.8983,0.9011,0.9032,0.9064,0.9067,0.908,0.9098,0.9122,0.9139,0.9121,0.9159,0.916,0.9149,0.9171,0.9169,0.9192,0.9166,0.9167,0.9167,0,0.8774,0.8806,0.8855,0.8893,0.8906,0.893,0.8965,0.8992,0.9024,0.9037,0.9062,0.9076,0.9108,0.9103,0.9147,0.9134,0.915,0.9164,0.9166,0.917,0.9165,0.9176,0.92,0.9203,0.9173,0.9173,0.9172,0,0.878,0.8835,0.8871,0.8887,0.8933,0.8949,0.8968,0.9,0.9021,0.9051,0.9064,0.9098,0.9116,0.9141,0.9164,0.9158,0.9205,0.9202,0.9216,0.9215,0.9225,0.9224,0.9251,0.9236,0.9236,0.9236,0.9236,0,0.8809,0.8838,0.8874,0.8896,0.8928,0.8953,0.8984,0.9005,0.9032,0.9058,0.9074,0.9098,0.9126,0.9153,0.9171,0.9203,0.9212,0.9222,0.9227,0.9221,0.9219,0.9233,0.9231,0.9237,0.9237,0.9236,0.9236,0,0.8821,0.8846,0.8887,0.8926,0.8936,0.8958,0.8991,0.9013,0.9032,0.9064,0.9073,0.9104,0.9137,0.9161,0.9203,0.9215,0.9249,0.9254,0.9238,0.9241,0.9252,0.9251,0.9289,0.9295,0.9275,0.9275,0.9276,0,0.8838,0.886,0.8901,0.892,0.8939,0.8968,0.8989,0.9013,0.9034,0.9071,0.9087,0.912,0.9148,0.9198,0.9224,0.9256,0.9261,0.9272,0.9266,0.9259,0.9261,0.9259,0.9261,0.9273,0.9273,0.9273,0.9273,0,0.8864,0.8875,0.8904,0.8937,0.8961,0.8988,0.9016,0.9029,0.9058,0.908,0.9113,0.9134,0.9176,0.9209,0.9242,0.9262,0.9272,0.9275,0.928,0.9274,0.9264,0.9269,0.924,0.9274,0.9274,0.9274,0.9274,0.9274,0.8879,0.8899,0.8931,0.8962,0.8985,0.901,0.9031,0.9053,0.9081,0.9117,0.9129,0.9163,0.9192,0.9239,0.9258,0.9284,0.9284,0.9291,0.9293,0.9294,0.9293,0.9259,0.929,0.929,0.929,0.929,0.929,0,0.8906,0.8926,0.8955,0.8992,0.9016,0.9024,0.9054,0.9073,0.9103,0.9129,0.9156,0.9193,0.9223,0.9251,0.9282,0.9298,0.9303,0.9305,0.9304,0.9308,0.9291,0.9284,0.93,0.93,0.93,0.93,0.93,0.93,0.8923,0.8957,0.8971,0.9016,0.9036,0.9069,0.9085,0.9108,0.9129,0.9169,0.9195,0.9212,0.9239,0.9272,0.93,0.9307,0.9318,0.9319,0.9327,0.9311,0.931,0.9308,0.9301,0.9321,0.9321,0.9341,0.9342,0.9342]}]]